Date String (YYYY-MM-DD hh:mm:ss) UTC,Instrument flags,Ambient pressure (hPa),Sample flow (lpm),Bypass flow (lpm),Sample temperature (°C),Ambient temperature (°C),ASC tube jacket temperature (°C),LED temperature (°C),Box temperature (°C),Sample RH (%),Span deviation,Mass concentration (μg/m³),Mass concentration (μg/m³),Mass concentration (μg/m³)
DateTimeUTC,F1_M11,P_M11,Q1_M11,Q2_M11,T1_M11,T2_M11,T3_M11,T4_M11,T5_M11,U1_M11,ZSPAN_M11,X0_M11,X2_M11,X1_M11
2023-02-24 13:00:00,,0823.8,4.99,0.00,22.7,21.8,00.0,31.4,24.2,03.9,0003.2,0013.32,0007.32,0007.01
2023-02-24 13:01:00,,0823.8,5.02,0.00,22.6,21.3,00.0,31.4,24.1,03.9,0003.3,0013.53,0007.40,0007.09
2023-02-24 13:02:00,,0823.8,5.00,0.00,22.6,20.9,00.0,31.4,23.9,04.0,0002.9,0013.78,0007.46,0007.15
2023-02-24 13:03:00,,0823.8,4.99,0.00,22.5,20.7,00.0,31.3,23.8,04.0,0001.6,0013.69,0007.41,0007.14
2023-02-24 13:04:00,,0823.8,5.00,0.00,22.4,20.7,00.0,31.3,23.9,04.0,0002.0,0013.68,0007.40,0007.13
2023-02-24 13:05:00,,0823.8,5.03,0.00,22.5,21.6,00.0,31.3,24.1,04.0,0002.3,0013.84,0007.43,0007.12
2023-02-24 13:06:00,,0823.8,5.02,0.00,22.6,22.5,00.0,31.3,24.3,03.9,0002.1,0013.79,0007.41,0007.10
2023-02-24 13:07:00,,0823.9,5.02,0.00,22.7,23.2,00.0,31.3,24.6,04.0,0001.8,0013.04,0007.26,0006.96
2023-02-24 13:08:00,,0823.9,5.04,0.00,22.8,23.3,00.0,31.3,24.6,03.9,0001.8,0012.05,0007.19,0006.89
2023-02-24 13:09:00,,0824.0,4.99,0.00,22.8,22.5,00.0,31.3,24.4,04.0,0001.6,0011.90,0007.09,0006.76
2023-02-24 13:10:00,,0824.0,5.01,0.00,22.7,21.8,00.0,31.4,24.3,04.0,0000.4,0011.04,0006.92,0006.62
2023-02-24 13:11:00,,0824.0,5.00,0.00,22.6,21.4,00.0,31.4,24.1,04.0,0000.0,0011.26,0006.83,0006.49
2023-02-24 13:12:00,,0824.0,5.00,0.00,22.6,20.9,00.0,31.3,24.0,04.0,0000.0,0011.05,0006.77,0006.39
2023-02-24 13:13:00,,0824.0,5.00,0.00,22.5,20.6,00.0,31.3,23.9,04.1,0000.0,0010.86,0006.71,0006.33
2023-02-24 13:14:00,,0823.9,5.02,0.00,22.5,21.1,00.0,31.3,24.0,04.1,0000.0,0010.94,0006.68,0006.26
2023-02-24 13:15:00,,0823.9,4.99,0.00,22.6,22.2,00.0,31.3,24.3,04.0,0000.0,0010.96,0006.65,0006.20
2023-02-24 13:16:00,,0823.9,4.96,0.00,22.7,22.9,00.0,31.3,24.5,04.0,0000.0,0010.72,0006.59,0006.16
2023-02-24 13:17:00,,0823.9,5.00,0.00,22.7,23.1,00.0,31.3,24.5,04.0,0000.0,0010.67,0006.57,0006.13
2023-02-24 13:18:00,,0823.8,5.01,0.00,22.7,22.3,00.0,31.3,24.4,04.0,0000.0,0010.90,0006.71,0006.23
2023-02-24 13:19:00,,0823.8,5.01,0.00,22.7,21.7,00.0,31.3,24.2,04.0,0000.0,0011.17,0006.76,0006.26
2023-02-24 13:20:00,,0823.7,5.00,0.00,22.6,21.3,00.0,31.3,24.1,04.0,0000.0,0011.29,0006.83,0006.33
2023-02-24 13:21:00,,0823.7,5.01,0.00,22.5,20.9,00.0,31.3,24.0,04.0,0000.0,0011.64,0006.97,0006.43
2023-02-24 13:22:00,,0823.7,5.01,0.00,22.5,20.8,00.0,31.3,23.9,04.0,0000.0,0011.51,0007.00,0006.48
2023-02-24 13:23:00,,0823.8,4.99,0.00,22.5,21.6,00.0,31.2,24.1,04.0,0000.0,0012.54,0006.99,0006.51
2023-02-24 13:24:00,,0823.8,5.01,0.00,22.6,22.4,00.0,31.2,24.4,04.0,0000.0,0012.99,0006.99,0006.50
2023-02-24 13:25:00,,0823.8,4.97,0.00,22.7,23.1,00.0,31.3,24.6,04.0,-001.2,0012.86,0006.96,0006.49
2023-02-24 13:26:00,,0823.7,4.98,0.00,22.7,22.7,00.0,31.3,24.5,04.0,-001.3,0012.71,0006.94,0006.49
2023-02-24 13:27:00,,0823.7,5.02,0.00,22.7,22.0,00.0,31.3,24.3,04.0,-001.0,0012.77,0006.97,0006.51
2023-02-24 13:28:00,,0823.7,4.99,0.00,22.6,21.4,00.0,31.3,24.1,04.0,-000.2,0012.75,0006.99,0006.53
2023-02-24 13:29:00,,0823.8,5.01,0.00,22.5,21.0,00.0,31.3,23.9,04.0,-000.8,0012.70,0006.97,0006.55
2023-02-24 13:30:00,,0823.8,5.01,0.00,22.5,20.7,00.0,31.3,23.8,04.0,-000.2,0012.50,0006.97,0006.58
2023-02-24 13:31:00,,0823.8,5.01,0.00,22.4,21.0,00.0,31.3,23.9,04.0,-000.1,0012.48,0007.01,0006.59
2023-02-24 13:32:00,,0823.8,5.02,0.00,22.5,22.0,00.0,31.2,24.2,04.0,-000.6,0012.33,0006.98,0006.59
2023-02-24 13:33:00,,0823.8,5.02,0.00,22.6,22.8,00.0,31.2,24.4,04.0,0000.1,0012.38,0007.01,0006.63
2023-02-24 13:34:00,,0823.8,4.97,0.00,22.7,23.5,00.0,31.3,24.6,03.9,0001.1,0011.78,0007.07,0006.67
2023-02-24 13:35:00,,0823.7,5.02,0.00,22.8,23.1,00.0,31.3,24.5,03.9,0000.0,0010.96,0007.13,0006.72
2023-02-24 13:36:00,,0823.7,5.02,0.00,22.7,22.3,00.0,31.3,24.4,03.9,0000.0,0011.02,0007.19,0006.78
2023-02-24 13:37:00,,0823.7,4.99,0.00,22.7,21.7,00.0,31.3,24.2,03.9,0000.0,0011.16,0007.26,0006.84
2023-02-24 13:38:00,,0823.7,5.01,0.00,22.6,21.2,00.0,31.3,24.1,03.9,0000.0,0011.19,0007.28,0006.86
2023-02-24 13:39:00,,0823.7,4.99,0.00,22.5,20.8,00.0,31.3,23.9,03.9,0000.0,0011.19,0007.27,0006.88
2023-02-24 13:40:00,,0823.7,4.99,0.00,22.4,20.5,00.0,31.3,23.9,03.9,0000.0,0011.22,0007.30,0006.91
2023-02-24 13:41:00,,0823.7,5.00,0.00,22.4,20.7,00.0,31.2,23.9,03.9,0000.0,0011.26,0007.32,0006.94
2023-02-24 13:42:00,,0823.6,4.96,0.00,22.5,21.8,00.0,31.2,24.1,03.9,0000.0,0011.25,0007.33,0006.97
2023-02-24 13:43:00,,0823.7,5.04,0.00,22.6,22.7,00.0,31.2,24.4,03.9,0000.0,0011.24,0007.35,0007.00
2023-02-24 13:44:00,,0823.7,4.91,0.00,22.7,23.4,00.0,31.3,24.6,03.9,0000.0,0011.21,0007.41,0007.05
2023-02-24 13:45:00,,0823.7,5.00,0.00,22.8,23.3,00.0,31.3,24.6,03.9,0000.0,0011.22,0007.46,0007.10
2023-02-24 13:46:00,,0823.7,5.00,0.00,22.7,22.5,00.0,31.3,24.4,03.9,0000.0,0011.34,0007.54,0007.17
2023-02-24 13:47:00,,0823.7,4.99,0.00,22.7,21.8,00.0,31.3,24.2,04.0,0001.6,0011.39,0007.59,0007.22
2023-02-24 13:48:00,,0823.7,5.00,0.00,22.6,21.3,00.0,31.3,24.0,04.0,0002.2,0011.47,0007.65,0007.27
2023-02-24 13:49:00,,0823.7,4.99,0.00,22.5,20.9,00.0,31.3,23.9,04.0,0001.7,0011.69,0007.73,0007.33
2023-02-24 13:50:00,,0823.7,5.00,0.00,22.5,20.6,00.0,31.3,23.8,04.1,0002.2,0011.72,0007.77,0007.36
2023-02-24 13:51:00,,0823.7,5.02,0.00,22.5,21.3,00.0,31.3,24.0,04.1,0002.2,0011.91,0007.81,0007.39
2023-02-24 13:52:00,,0823.7,4.98,0.00,22.6,22.4,00.0,31.2,24.3,04.1,0002.3,0012.06,0007.84,0007.40
2023-02-24 13:53:00,,0823.7,5.02,0.00,22.7,23.1,00.0,31.3,24.5,04.1,0002.6,0012.14,0007.87,0007.41
2023-02-24 13:54:00,,0823.6,4.98,0.00,22.7,23.1,00.0,31.3,24.6,04.2,0002.6,0012.75,0007.88,0007.42
2023-02-24 13:55:00,,0823.7,5.00,0.00,22.7,22.4,00.0,31.3,24.4,04.2,0003.1,0012.94,0007.87,0007.41
2023-02-24 13:56:00,,0823.7,5.01,0.00,22.7,21.8,00.0,31.3,24.2,04.2,0002.7,0012.91,0007.82,0007.36
2023-02-24 13:57:00,,0823.7,5.00,0.00,22.6,21.3,00.0,31.3,24.1,04.3,0002.7,0012.81,0007.73,0007.31
2023-02-24 13:58:00,,0823.6,4.98,0.00,22.5,20.9,00.0,31.3,23.9,04.4,0003.2,0012.73,0007.66,0007.26
2023-02-24 13:59:00,,0823.7,5.01,0.00,22.4,20.5,00.0,31.3,23.8,04.4,0003.1,0012.65,0007.58,0007.22
